Augusta, ME

5:59 AM EDT on August 18, 2017 (GMT -0400)
Augusta State

Weather History for KAUG - December, 2012

Change the Weather History Date:

Saturday, December 8, 2012

  Actual Average Record
Temperature  
Mean Temperature 38 °F 29 °F  
Max Temperature 42 °F 36 °F 56 °F (1951)
Min Temperature 33 °F 22 °F 1 °F (1989)
Degree Days  
Heating Degree Days 28 36  
Month to date heating degree days 277  
Since 1 July heating degree days 1825  
Cooling Degree Days 0 0  
Month to date cooling degree days 0  
Year to date cooling degree days 388  
Moisture  
Dew Point 32 °F    
Average Humidity 86    
Maximum Humidity 100    
Minimum Humidity 70    
Precipitation  
Precipitation 0.20 in 0.11 in 1.38 in (1974)
Month to date precipitation 0.96  
Year to date precipitation 39.60  
Sea Level Pressure  
Sea Level Pressure 29.96 in    
Wind  
Wind Speed 2 mph (North)    
Max Wind Speed 7 mph    
Max Gust Speed -    
Visibility 1 miles    
Events Fog , Rain    
T = Trace of Precipitation, MM = Missing Value Source: NWS Daily Summary

Daily Weather History Graph

Daily Weather History Graph

Search for Another Location

Airport or City:

Trip Planner

Search our weather history database for the weather conditions in past years. The results will help you decide how hot, cold, wet, or windy it might be!

Date:

Astronomy

Dec. 08, 2012 Rise Set
Actual Time 7:02 AM EST 3:59 PM EST
Civil Twilight 6:29 AM EST 4:32 PM EST
Nautical Twilight 5:53 AM EST 5:09 PM EST
Astronomical Twilight 5:17 AM EST 5:44 PM EST
Moon 1:13 AM EST (12/8) 12:36 PM EST (12/8)
Length of Visible Light 10h 03m
Length of Day
8h 57m
Waning Crescent, 28% of the Moon is Illuminated
Dec 8
Waning Crescent
Dec 13
New
Dec 20
First Quarter
Dec 28
Full
Jan 4
Last Quarter

Hourly Weather History & Observations

Time (EST) Temp. Windchill Dew Point Humidity Pressure Visibility Wind Dir Wind Speed Gust Speed Precip Events Conditions
12:06 AM 37.4 °F - 33.8 °F 87% 30.03 in 3.0 mi Calm Calm - N/A   Overcast
12:30 AM 39.2 °F - 32.0 °F 75% 30.03 in 4.0 mi Calm Calm - N/A   Haze
12:53 AM 37.9 °F - 33.1 °F 83% 30.03 in 4.0 mi Calm Calm - N/A   Haze
1:53 AM 39.0 °F - 33.1 °F 79% 30.04 in 6.0 mi Calm Calm - N/A   Haze
2:53 AM 37.9 °F - 32.0 °F 79% 30.02 in 4.0 mi Calm Calm - N/A   Haze
3:01 AM 37.4 °F - 32.0 °F 81% 30.01 in 1.8 mi Calm Calm - N/A   Haze
3:09 AM 39.2 °F - 30.2 °F 70% 30.01 in 0.2 mi Calm Calm - N/A   Haze
3:24 AM 39.2 °F 37.0 °F 30.2 °F 70% 30.01 in 0.2 mi NNE 3.5 mph - N/A   Haze
3:33 AM 35.6 °F - 30.2 °F 81% 30.01 in 0.5 mi Calm Calm - N/A Fog Fog
3:46 AM 35.6 °F - 30.2 °F 81% 30.01 in 0.5 mi Calm Calm - N/A Fog Fog
3:53 AM 35.1 °F 32.2 °F 30.9 °F 85% 30.03 in 0.8 mi NNE 3.5 mph - N/A   Scattered Clouds
4:01 AM 35.6 °F 32.8 °F 30.2 °F 81% 30.01 in 1.2 mi NNE 3.5 mph - N/A   Haze
4:04 AM 37.4 °F 34.9 °F 30.2 °F 75% 30.01 in 0.8 mi NE 3.5 mph - N/A   Haze
4:15 AM 39.2 °F 37.0 °F 30.2 °F 70% 30.01 in 0.2 mi NNE 3.5 mph - N/A   Haze
4:28 AM 35.6 °F 32.8 °F 30.2 °F 81% 30.01 in 0.2 mi North 3.5 mph - N/A   Haze
4:53 AM 36.0 °F 32.1 °F 30.0 °F 79% 30.02 in 0.2 mi North 4.6 mph - N/A   Haze
5:19 AM 37.4 °F 34.9 °F 30.2 °F 75% 30.02 in 0.5 mi NW 3.5 mph - N/A   Haze
5:36 AM 33.8 °F 30.8 °F 30.2 °F 87% 30.02 in 0.2 mi NNW 3.5 mph - N/A Fog Fog
5:53 AM 35.6 °F 31.7 °F 30.2 °F 81% 30.02 in 0.2 mi North 4.6 mph - N/A   Haze
6:01 AM 35.6 °F 32.8 °F 30.2 °F 81% 30.02 in 0.5 mi NNW 3.5 mph - N/A   Haze
6:53 AM 35.1 °F - 30.9 °F 85% 30.04 in 0.5 mi Calm Calm - N/A Fog Fog
7:28 AM 35.6 °F - 30.2 °F 81% 30.03 in 0.2 mi Calm Calm - N/A   Haze
7:53 AM 37.0 °F 34.5 °F 30.9 °F 79% 30.04 in 0.2 mi North 3.5 mph - 0.00 in Rain Light Rain
8:53 AM 37.9 °F 34.4 °F 32.0 °F 79% 30.02 in 0.2 mi North 4.6 mph - 0.01 in Rain Light Rain
9:10 AM 37.4 °F 34.9 °F 32.0 °F 81% 30.01 in 0.5 mi NNE 3.5 mph - 0.00 in Rain Light Rain
9:25 AM 39.2 °F 35.9 °F 32.0 °F 75% 30.01 in 1.8 mi NNE 4.6 mph - 0.00 in   Haze
9:32 AM 42.8 °F 40.1 °F 33.8 °F 70% 30.00 in 2.0 mi NNE 4.6 mph - 0.00 in Rain Light Rain
9:51 AM 41.0 °F 38.0 °F 33.8 °F 76% 30.00 in 3.0 mi NNE 4.6 mph - 0.00 in Rain Light Rain
9:53 AM 41.0 °F 39.0 °F 33.1 °F 73% 30.01 in 3.0 mi North 3.5 mph - 0.00 in Rain Light Rain
10:44 AM 39.2 °F 35.9 °F 33.8 °F 81% 29.98 in 1.8 mi North 4.6 mph - 0.01 in Rain Light Rain
10:53 AM 41.0 °F 37.1 °F 33.1 °F 73% 29.99 in 2.0 mi North 5.8 mph - 0.01 in Rain Light Rain
11:53 AM 39.9 °F 36.7 °F 34.0 °F 79% 29.96 in 1.5 mi NNE 4.6 mph - 0.07 in Rain Light Rain
12:31 PM 37.4 °F 32.1 °F 33.8 °F 87% 29.93 in 0.8 mi NNW 6.9 mph - 0.08 in Rain Rain
12:42 PM 37.4 °F 32.1 °F 33.8 °F 87% 29.92 in 1.0 mi NNW 6.9 mph - 0.10 in Rain Light Rain
12:53 PM 37.9 °F 33.5 °F 34.0 °F 86% 29.92 in 1.0 mi North 5.8 mph - 0.11 in Rain Light Rain
1:04 PM - - - N/A% 29.90 in 0.8 mi North 5.8 mph - 0.00 in Rain Light Rain
1:18 PM 35.6 °F 29.9 °F 33.8 °F 93% 29.90 in 1.2 mi NNW 6.9 mph - 0.00 in   Overcast
1:53 PM 35.1 °F 30.1 °F 34.0 °F 96% 29.91 in 1.2 mi NNW 5.8 mph - 0.00 in Rain Light Rain
2:13 PM 35.6 °F 30.7 °F 33.8 °F 93% 29.89 in 0.8 mi North 5.8 mph - 0.00 in   Mist
2:53 PM 34.0 °F 28.8 °F 34.0 °F 100% 29.89 in 0.8 mi North 5.8 mph - 0.00 in   Mist
3:21 PM 33.8 °F 27.7 °F 33.8 °F 100% 29.88 in 0.2 mi NNW 6.9 mph - N/A Fog Fog
3:53 PM 34.0 °F 28.8 °F 34.0 °F 100% 29.89 in 0.2 mi NNW 5.8 mph - N/A Fog Fog
4:53 PM 34.0 °F 28.8 °F 33.1 °F 96% 29.89 in 0.2 mi NNW 5.8 mph - N/A Fog Fog
5:28 PM 33.8 °F 27.7 °F 33.8 °F 100% 29.87 in 0.5 mi NNW 6.9 mph - N/A Fog Fog
5:38 PM 33.8 °F 28.6 °F 33.8 °F 100% 29.87 in 0.2 mi NNW 5.8 mph - N/A Fog Fog
5:53 PM 34.0 °F 31.0 °F 33.1 °F 96% 29.89 in 0.5 mi NNW 3.5 mph - N/A Fog Fog
6:53 PM 34.0 °F 29.8 °F 33.1 °F 96% 29.88 in 0.5 mi NW 4.6 mph - N/A Fog Fog
7:53 PM 34.0 °F - 34.0 °F 100% 29.87 in 0.5 mi Calm Calm - N/A Fog Fog
8:12 PM 33.8 °F - 33.8 °F 100% 29.86 in 1.2 mi Calm Calm - N/A   Overcast
8:53 PM 34.0 °F 29.8 °F 33.1 °F 96% 29.89 in 0.8 mi WNW 4.6 mph - N/A   Mist
9:53 PM 34.0 °F - 34.0 °F 100% 29.88 in 0.8 mi Calm Calm - N/A   Mist
10:53 PM 33.8 °F - 33.8 °F 100% 29.87 in 0.5 mi Calm Calm - N/A Fog Fog
11:03 PM 33.8 °F - 33.8 °F 100% 29.87 in 0.2 mi Calm Calm - N/A Fog Fog
11:53 PM 34.0 °F 31.0 °F 34.0 °F 100% 29.89 in 0.5 mi SSW 3.5 mph - N/A Fog Fog